Theta_e
318 318 313 314 311 309 307 307 307 306 307 310 312 315 321 326 325 326 324 323 326 328
313 312 311 311 310 307 306 306 305 305 304 305 304 306 309 314 317 319 318 318 319 319
311 311 311 310 309 310 307 307 306 304 304 304 303 304 305 306 310 311 311 310 313 314
311 312 312 309 310 310 307 307 307 305 304 303 303 303 304 304 306 306 307 308 308 311
310 310 310 309 309 308 307 308 306 305 304 303 303 303 303 303 304 303 303 304 306 305
305 305 306 307 307 307 307 306 306 306 304 303 303 303 303 304 303 303 303 304 304 306
304 304 304 305 306 305 305 305 305 305 304 303 303 302 303 303 304 304 304 306 307 307
310 307 304 304 304 305 305 305 305 304 304 304 304 304 303 303 303 303 305 307 307 308
307 309 308 304 304 305 307 307 306 305 304 304 303 303 305 306 305 305 306 307 307 309
302 301 301 303 305 306 307 308 307 305 305 305 306 302 303 305 306 306 306 306 306 304
303 302 302 302 301 303 307 307 307 306 307 306 305 302 301 301 306 306 305 306 307 307
306 303 302 301 301 301 303 303 303 304 306 307 306 300 300 302 305 305 307 307 309 309
307 307 304 304 303 304 305 304 304 304 305 304 305 299 299 301 304 303 304 308 310 306
308 309 307 308 308 307 307 305 304 304 306 307 306 306 298 298 304 305 306 307 308 310
Wind_Speed
7 5 5 6 8 6 5 7 10 10 11 11 9 9 7 5 8 11 11 12 7 7
4 4 5 10 10 8 10 8 11 11 13 11 11 11 12 5 4 5 7 7 6 6
4 3 4 7 9 10 7 10 10 11 15 10 10 10 10 8 5 3 7 6 5 5
4 3 6 6 7 9 9 9 12 11 11 10 11 11 7 4 8 5 7 7 6 9
6 5 6 7 6 8 7 10 11 10 11 11 10 10 10 6 6 8 9 8 10 9
7 7 8 8 8 7 8 8 8 9 11 11 10 10 8 6 7 6 7 7 9 6
6 6 6 6 6 7 6 7 7 7 9 7 9 10 8 7 7 6 5 5 7 6
8 8 7 7 6 5 7 6 7 8 9 9 9 8 11 11 10 8 7 7 5 5
5 5 6 6 7 8 10 10 10 9 10 10 9 14 15 13 12 11 8 7 6 6
6 6 6 5 4 5 10 11 10 11 11 9 11 11 7 6 6 6 6 5 4 4
8 7 5 5 5 5 3 8 8 8 9 9 8 8 8 7 7 5 4 6 7 5
10 12 9 7 6 4 4 3 3 3 5 6 7 7 6 5 5 5 6 6 7 8
6 9 7 9 9 11 9 8 7 7 6 5 5 5 6 7 6 7 8 9 9 9
4 7 9 9 8 7 7 7 8 9 10 11 11 11 12 11 10 8 8 8 8 8
Wind_Direction
126 119 107 111 109 109 101 105 97 81 50 30 18 329 297 262 224 193 195 188 207 216
29 84 131 124 129 125 137 132 108 107 94 61 27 28 341 308 279 181 157 166 157 199
82 118 141 133 148 140 132 133 136 128 117 98 103 54 21 351 0 124 122 109 114 92
82 96 116 112 135 129 128 123 117 109 96 115 102 85 69 338 21 29 67 83 79 85
66 75 80 92 94 103 117 119 110 116 112 105 100 108 88 71 31 18 34 31 77 55
66 66 71 77 100 95 107 97 107 116 110 118 111 83 88 89 77 55 41 24 46 88
95 92 86 81 81 107 107 117 124 114 109 106 100 110 114 114 120 129 141 163 184 152
134 130 123 117 111 110 122 135 139 135 132 141 145 152 158 162 165 169 170 169 160 153
109 122 132 136 150 157 157 157 165 156 158 159 165 164 179 171 166 174 172 158 175 163
123 120 113 98 141 164 157 148 146 154 158 162 134 142 134 115 138 156 166 164 169 193
161 141 129 113 113 80 112 140 146 148 154 149 131 143 150 166 162 158 177 193 194 208
174 147 146 152 132 135 113 73 115 186 169 154 145 142 147 193 218 214 210 218 218 217
189 134 160 148 168 172 179 181 185 179 205 238 223 169 180 200 223 222 227 223 224 215
224 176 178 177 179 181 182 173 195 200 199 209 214 204 202 204 225 227 213 230 215 220